Погода в Петелине

Россия / Тюменская область     56°44′55″N   66°27′54″E
темп.,
°C
ветер,
м/с
пор.,
м/с
влажн.,
%
обл.,
%
осадки,
мм/ч
давл.,
гПа
погр.,
м
24 июня, чт
чт2423:00+10с49775 0.0 1017295
02:00+7с368988 0.0 1018116
05:00+6с36866 0.0 1018142
08:00+12с586017 0.0 10181048
11:00+16с6847100 0.0 10181613
14:00+18с5640100 0.0 10171948
17:00+19с3537100 0.0 10161978
20:00+16юв2251100 0.0 101513
25 июня, пт
пт2523:00+14ю3350100 0.0 101457
02:00+14ююз365339 0.0 1013131
05:00+13юз116774 0.0 101225
08:00+18с22574 0.0 1011406
11:00+21с344741 0.0 10111234
14:00+23ссв453690 0.0 10111869
17:00+24ссв453757 0.0 10112108
20:00+18св365511 0.0 1012113
26 июня, сб
сб2623:00+13в336676 0.0 101327
02:00+11ююв22845 0.0 101218
05:00+11ююв2388100 0.0 101354
08:00+17юв3364100 0.0 1012322
11:00+22ю2247100 0.0 1012950
14:00+24ююз3443100 0.0 10101580
17:00+22ююв4756100 0.0 1008364
20:00+16юв3394100 2.8 100863
27 июня, вс
вс2723:00+15юв3894100 2.9 1007202
02:00+15юв249390 0.0 1007120
05:00+16всв1193100 0.0 100754
08:00+17св1290100 0.0 1007211
11:00+18с3384100 0.0 1008565
14:00+18ссз4582100 0.1 1008728
17:00+17ссз5786100 0.2 1009658
20:00+15ссз5889100 0.0 1010590
28 июня, пн
пн2823:00+14ссв5992100 0.1 1011519
02:00+13с5992100 0.0 1012432
05:00+14с498982 0.0 1013507
08:00+16с577785 0.0 1014550
11:00+20с666132 0.0 10141096
14:00+23с564944 0.0 10151911
17:00+21ссз5953100 0.0 1015843
20:00+18ссв486151 0.0 1016314